User: anonymous   Login
Location: Nitra
(0.0000°N, 18.0833°E)
Time: 17:27:01
(UTC+02:00)
Language:

Cosmos 1553 Rocket - Orbit

View from above orbital plane
View from above orbital plane
View from above satellite
View from above satellite

Ground track
Ground track

The orbit data is extracted from the following two-line orbital elements,

1 14974U 84046B   21104.29617478  .00000035  00000-0  19705-4 0  9993
2 14974  82.9386 182.8735 0046141  52.6481   9.0507 13.76936655854222
Epoch (UTC): 14 April 2021 07:06:29
Eccentricity: 0.0046141
inclination: 82.9386°
perigee height: 941 km
apogee height: 1009 km
right ascension of ascending node: 182.8735°
argument of perigee: 52.6481°
revolutions per day: 13.76936655
mean anomaly at epoch: 9.0507°
orbit number at epoch: 85422

The dashed part of the orbit path shows where the satellite is in the earth's shadow,  

DLR